Portada
METAR-TAF:

METAR-TAF

Aeroports :

Sallisaw, Oklahoma, Estats Units d'Amèrica

latitud: 35-26-17N, longitud: 094-48-10W, altitud: 161 m

Observació

L'informe es va fer fa 20 minuts, a les 09:35 UTC
Vent calma
Temperatura 11°C
Humitat 66%
Pressió 1022 hPa
Visibilitat: 16.1 km
Cel clar

METAR: KJSV 300935Z AUTO 00000KT 10SM CLR 11/05 A3018 RMK AO2

Hora: 04:55 (09:55 UTC)


TAF: manca

Observacions i pronòstics meteorològics de més de 4000 aeroports (METAR i TAF).

Les estacions disponibles són els punts grocs i vermells al mapa.

Posi el ratolí al punt desitjat per veure el nom de l'estació.

Feu clic per veure les observacions i els pronòstics meteorològics.

Per canviar el mapa: feu clic els botons verds amb una creu de color negre per apropar; al botó verd amb un guió per allunyar la imatge; o en les fletxes verdes per a mapes adjacents.


METAR-TAF: